Warning: Javascript must be enabled to use all the features on this page!


Page Loading - Please Wait...

Click to hideNews Bulletins

Streamflow Measurements for the Nation


USGS 01372058 HUDSON RIVER BELOW POUGHKEEPSIE NY


Dutchess County, New York
Hydrologic Unit Code 02020008
Latitude  41°39'06.3", Longitude  73°56'37.4" NAD83
Drainage area 11,740  square miles
Output formats
HTML table with channel data
HTML table without channel data
Tab-separated data with channel data
Tab-separated data without channel data
Graph of data
Reselect output format
Meas.
Number
  Date       Time Time
Datum
Measurement
Used?
  Who Measuring
Agency
Stream
flow
(ft3/s)
Gage
Height
(ft)
GH
Change
(ft)
Meas.
Duration
(hr)
Meas.
Rated
  Control Flow
Adjust.
Code
 
2922003-07-29 07:13ESTYesGRW/EANUSGS195000 GoodClearNONE
2912003-07-29 06:54ESTYesGRW/EANUSGS222000 GoodClearNONE
2902003-07-29 06:38ESTYesGRW/EANUSGS241000 GoodClearNONE
2892003-07-29 06:23ESTYesGRW/EANUSGS252000 GoodClearNONE
2882003-07-10 12:42ESTYesGRW/EANUSGS189000 GoodClearNONE
2872003-07-10 12:26ESTYesGRW/EANUSGS172000 GoodClearNONE
2862003-07-10 12:10ESTYesGRW/EANUSGS154000 GoodClearNONE
2852003-07-10 11:54ESTYesGRW/EANUSGS129000 GoodClearNONE
2842003-04-24 14:29ESTYesGRW/EANUSGS153000 GoodClearNONE
2832003-04-24 14:13ESTYesGRW/EANUSGS177000 GoodClearNONE
2822003-04-24 13:55ESTYesGRW/EANUSGS200000 GoodClearNONE
2812003-04-24 13:41ESTYesGRW/EANUSGS217000 GoodClearNONE
2802003-04-24 13:23ESTYesGRW/EANUSGS227000 GoodClearNONE
2792003-04-24 13:09ESTYesGRW/EANUSGS239000 GoodClearNONE
2782003-04-24 12:52ESTYesGRW/EANUSGS250000 GoodClearNONE
2772003-04-24 12:37ESTYesGRW/EANUSGS251000 GoodClearNONE
2762003-04-24 12:20ESTYesGRW/EANUSGS255000 GoodClearNONE
2752003-04-24 12:04ESTYesGRW/EANUSGS251000 GoodClearNONE
2742003-04-24 11:45ESTYesGRW/EANUSGS244000 GoodClearNONE
2732003-04-24 11:32ESTYesGRW/EANUSGS233000 GoodClearNONE
2722003-04-24 11:14ESTYesGRW/EANUSGS225000 GoodClearNONE
2712003-04-24 10:59ESTYesGRW/EANUSGS212000 GoodClearNONE
2702003-04-24 10:41ESTYesGRW/EANUSGS200000 GoodClearNONE
2692003-04-24 10:26ESTYesGRW/EANUSGS185000 GoodClearNONE
2682003-04-24 10:07ESTYesGRW/EANUSGS166000 GoodClearNONE
2672003-04-24 09:52ESTYesGRW/EANUSGS140000 GoodClearNONE
2662003-04-17 12:07ESTYesGRW/EANUSGS-271000 GoodClearNONE
2652003-04-17 11:52ESTYesGRW/EANUSGS-281000 GoodClearNONE
2642003-04-17 11:32ESTYesGRW/EANUSGS-293000 GoodClearNONE
2632003-04-17 11:17ESTYesGRW/EANUSGS-291000 GoodClearNONE
2622003-04-17 10:59ESTYesGRW/EANUSGS-293000 GoodClearNONE
2612003-04-17 10:41ESTYesGRW/EANUSGS-278000 GoodClearNONE
2602003-04-17 10:25ESTYesGRW/EANUSGS-269000 GoodClearNONE
2592003-04-17 10:11ESTYesGRW/EANUSGS-246000 GoodClearNONE
2582003-04-17 09:56ESTYesGRW/EANUSGS-227000 GoodClearNONE
2572003-04-17 09:44ESTYesGRW/EANUSGS-194000 GoodClearNONE
2562003-04-17 09:29ESTYesGRW/EANUSGS-168000 GoodClearNONE
2552003-04-17 09:04ESTYesGRW/EANUSGS-105000 GoodClearNONE
2542003-04-17 08:44ESTYesGRW/EANUSGS-53500 GoodClearNONE
2532003-04-10 14:35ESTYesGRW/EANUSGS62700 GoodClearNONE
2522003-04-10 14:19ESTYesGRW/EANUSGS86100 GoodClearNONE
2512003-04-10 14:05ESTYesGRW/EANUSGS107000 GoodClearNONE
2502003-04-10 13:50ESTYesGRW/EANUSGS125000 GoodClearNONE
2492003-04-10 13:29ESTYesGRW/EANUSGS151000 GoodClearNONE
2482003-04-10 13:14ESTYesGRW/EANUSGS169000 GoodClearNONE
2472003-04-10 12:57ESTYesGRW/EANUSGS190000 GoodClearNONE
2462003-04-10 12:37ESTYesGRW/EANUSGS208000 GoodClearNONE
2452003-04-10 12:22ESTYesGRW/EANUSGS219000 GoodClearNONE
2442003-04-10 12:07ESTYesGRW/EANUSGS226000 GoodClearNONE
2432003-04-10 11:53ESTYesGRW/EANUSGS236000 GoodClearNONE
2422003-04-10 11:37ESTYesGRW/EANUSGS241000 GoodClearNONE
2412003-04-10 11:22ESTYesGRW/EANUSGS245000 GoodClearNONE
2402003-03-31 17:21ESTYesGRW/EANUSGS264000 GoodClearNONE
2392003-03-31 17:03ESTYesGRW/EANUSGS272000 GoodClearNONE
2382003-03-31 16:49ESTYesGRW/EANUSGS276000 GoodClearNONE
2372003-03-26 14:15ESTYesGRW/EANUSGS241000 GoodClearNONE
2362003-03-26 14:02ESTYesGRW/EANUSGS249000 GoodClearNONE
2352003-03-26 13:49ESTYesGRW/EANUSGS258000 GoodClearNONE
2342003-03-26 13:34ESTYesGRW/EANUSGS269000 GoodClearNONE
2332002-11-26 14:48ESTYesGRW/EANUSGS-218000 GoodClearNONE
2322002-11-26 14:31ESTYesGRW/EANUSGS-218000 GoodClearNONE
2312002-11-26 14:15ESTYesGRW/EANUSGS-207000 GoodClearNONE
2302002-11-26 13:58ESTYesGRW/EANUSGS-194000 GoodClearNONE
2292002-11-26 13:42ESTYesGRW/EANUSGS-178000 GoodClearNONE
2282002-11-26 13:26ESTYesGRW/EANUSGS-157000 GoodClearNONE
2272002-11-26 13:04ESTYesGRW/EANUSGS-121000 GoodClearNONE
2262002-11-26 12:45ESTYesGRW/EANUSGS-81400 GoodClearNONE
2252002-11-26 12:28ESTYesGRW/EANUSGS-45000 GoodClearNONE
2242002-11-26 12:10ESTYesGRW/EANUSGS-4820 GoodClearNONE
2232002-11-26 11:52ESTYesGRW/EANUSGS39600 GoodClearNONE
2222002-11-26 11:35ESTYesGRW/EANUSGS75100 GoodClearNONE
2212002-11-26 11:17ESTYesGRW/EANUSGS109000 GoodClearNONE
2202002-11-26 11:01ESTYesGRW/EANUSGS135000 GoodClearNONE
2192002-11-26 10:45ESTYesGRW/EANUSGS156000 GoodClearNONE
2182002-11-26 10:32ESTYesGRW/EANUSGS171000 GoodClearNONE
2172002-10-31 13:23ESTYesGRW/EANUSGS212000 GoodClearNONE
2162002-10-31 13:08ESTYesGRW/EANUSGS209000 GoodClearNONE
2152002-10-31 12:51ESTYesGRW/EANUSGS203000 GoodClearNONE
2142002-10-31 12:34ESTYesGRW/EANUSGS193000 GoodClearNONE
2132002-10-31 12:16ESTYesGRW/EANUSGS184000 GoodClearNONE
2122002-10-31 11:59ESTYesGRW/EANUSGS173000 GoodClearNONE
2112002-10-31 11:43ESTYesGRW/EANUSGS161000 GoodClearNONE
2102002-10-31 11:27ESTYesGRW/EANUSGS140000 GoodClearNONE
2092002-10-04 15:20ESTYesGRW/EANUSGS257000 GoodClearNONE
2082002-10-04 15:01ESTYesGRW/EANUSGS251000 GoodClearNONE
2072002-10-04 14:45ESTYesGRW/EANUSGS242000 GoodClearNONE
2062002-10-04 14:27ESTYesGRW/EANUSGS234000 GoodClearNONE
2052002-10-04 14:09ESTYesGRW/EANUSGS220000 GoodClearNONE
2042002-10-04 13:53ESTYesGRW/EANUSGS203000 GoodClearNONE
2032002-10-04 13:35ESTYesGRW/EANUSGS181000 GoodClearNONE
2022002-10-04 13:19ESTYesGRW/EANUSGS156000 GoodClearNONE
2012002-10-04 13:03ESTYesGRW/EANUSGS125000 GoodClearNONE
2002002-10-04 12:46ESTYesGRW/EANUSGS95100 GoodClearNONE
1992002-10-04 12:28ESTYesGRW/EANUSGS49600 GoodClearNONE
1982002-10-04 12:12ESTYesGRW/EANUSGS12000 GoodClearNONE
1972002-10-04 11:55ESTYesGRW/EANUSGS-31300 GoodClearNONE
1962002-10-04 11:39ESTYesGRW/EANUSGS-66300 GoodClearNONE
1952002-10-04 11:18ESTYesGRW/EANUSGS-110000 GoodClearNONE
1942002-09-25 12:25ESTYesGRW/EANUSGS-229000 GoodClearNONE
1932002-09-25 12:08ESTYesGRW/EANUSGS-219000 GoodClearNONE
1922002-09-25 11:54ESTYesGRW/EANUSGS-204000 GoodClearNONE
1912002-09-25 11:31ESTYesGRW/EANUSGS-180000 GoodClearNONE
1902002-09-25 11:13ESTYesGRW/EANUSGS-150000 GoodClearNONE
1892002-09-03 12:02ESTYesGRW/EANUSGS122000 GoodClearNONE
1882002-09-03 11:48ESTYesGRW/EANUSGS99600 GoodClearNONE
1872002-09-03 11:32ESTYesGRW/EANUSGS84600 GoodClearNONE
1862002-09-03 11:18ESTYesGRW/EANUSGS60900 GoodClearNONE
1852002-08-21 10:06ESTYesGRW/EANUSGS-230000 GoodClearNONE
1842002-08-21 09:51ESTYesGRW/EANUSGS-224000 GoodClearNONE
1832002-08-21 09:33ESTYesGRW/EANUSGS-212000 GoodClearNONE
1822002-08-21 09:18ESTYesGRW/EANUSGS-197000 GoodClearNONE
1812002-08-21 09:01ESTYesGRW/EANUSGS-178000 GoodClearNONE
1802002-08-21 08:46ESTYesGRW/EANUSGS-155000 GoodClearNONE
1792002-08-15 12:48ESTYesGRW/EANUSGS117000 GoodClearNONE
1782002-08-15 12:34ESTYesGRW/EANUSGS148000 GoodClearNONE
1772002-08-15 12:18ESTYesGRW/EANUSGS169000 GoodClearNONE
1762002-08-15 12:02ESTYesGRW/EANUSGS190000 GoodClearNONE
1752002-07-23 10:16ESTYesGRW/EANUSGS-239000 GoodClearNONE
1742002-07-23 09:59ESTYesGRW/EANUSGS-229000 GoodClearNONE
1732002-07-23 09:44ESTYesGRW/EANUSGS-216000 GoodClearNONE
1722002-07-23 09:28ESTYesGRW/EANUSGS-198000 GoodClearNONE
1712002-07-23 09:14ESTYesGRW/EANUSGS-172000 GoodClearNONE
1702002-07-23 08:56ESTYesGRW/EANUSGS-139000 GoodClearNONE
1692002-07-02 11:55ESTYesGRW/EANUSGS214000 GoodClearNONE
1682002-07-02 11:40ESTYesGRW/EANUSGS225000 GoodClearNONE
1672002-07-02 11:22ESTYesGRW/EANUSGS239000 GoodClearNONE
1662002-07-02 11:06ESTYesGRW/EANUSGS236000 GoodClearNONE
1652002-06-25 11:59ESTYesGRW/EANUSGS-255000 GoodClearNONE
1642002-06-25 11:44ESTYesGRW/EANUSGS-260000 GoodClearNONE
1632002-06-25 11:25ESTYesGRW/EANUSGS-261000 GoodClearNONE
1622002-06-19 12:03ESTYesGRW/EANUSGS265000 GoodClearNONE
1612002-06-19 11:45ESTYesGRW/EANUSGS259000 GoodClearNONE
1602002-06-19 11:26ESTYesGRW/EANUSGS257000 GoodClearNONE
1592002-06-19 11:07ESTYesGRW/EANUSGS247000 GoodClearNONE
1582002-06-07 11:49ESTYesGRW/EANUSGS71900 GoodClearNONE
1572002-06-07 11:32ESTYesGRW/EANUSGS39200 GoodClearNONE
1562002-06-07 11:16ESTYesGRW/EANUSGS15500 GoodClearNONE
1552002-06-07 10:59ESTYesGRW/EANUSGS-7600 GoodClearNONE
1542002-05-29 12:38ESTYesGRW/EANUSGS-219000 GoodClearNONE
1532002-05-29 12:22ESTYesGRW/EANUSGS-202000 GoodClearNONE
1522002-05-29 12:06ESTYesGRW/EANUSGS-177000 GoodClearNONE
1512002-05-29 11:49ESTYesGRW/EANUSGS-150000 GoodClearNONE
1502002-05-29 11:34ESTYesGRW/EANUSGS-113000 GoodClearNONE
1492002-05-29 11:17ESTYesGRW/EANUSGS-72400 GoodClearNONE
1482002-05-29 10:59ESTYesGRW/EANUSGS-28500 GoodClearNONE
1472002-05-16 12:31ESTYesGRW/EANUSGS-134000 GoodClearNONE
1462002-05-16 12:15ESTYesGRW/EANUSGS-115000 GoodClearNONE
1452002-04-17 12:58ESTYesGRW/EANUSGS-113000 GoodClearNONE
1442002-04-17 12:42ESTYesGRW/EANUSGS-93900 GoodClearNONE
1432002-04-17 12:24ESTYesGRW/EANUSGS-65400 GoodClearNONE
1422002-04-17 12:05ESTYesGRW/EANUSGS-39300 GoodClearNONE
1412002-04-10 11:42ESTYesGRW/EANUSGS-112000 GoodClearNONE
1402002-03-28 17:12ESTYesGRW/EANUSGS302000 GoodClearNONE
1392002-03-28 16:56ESTYesGRW/EANUSGS300000 GoodClearNONE
1382002-03-28 16:38ESTYesGRW/EANUSGS301000 GoodClearNONE
1372002-03-28 16:21ESTYesGRW/EANUSGS300000 GoodClearNONE
1362002-03-28 16:04ESTYesGRW/EANUSGS294000 GoodClearNONE
1352002-03-28 15:17ESTYesGRW/EANUSGS261000 GoodClearNONE
1342002-03-28 15:00ESTYesGRW/EANUSGS241000 GoodClearNONE
1332002-03-28 14:43ESTYesGRW/EANUSGS222000 GoodClearNONE
1322002-03-28 14:27ESTYesGRW/EANUSGS190000 GoodClearNONE
1312002-03-28 14:10ESTYesGRW/EANUSGS155000 GoodClearNONE
1302002-03-28 13:51ESTYesGRW/EANUSGS102000 GoodClearNONE
1292002-03-28 13:33ESTYesGRW/EANUSGS54700 GoodClearNONE
1282002-03-28 13:14ESTYesGRW/EANUSGS4130 GoodClearNONE
1272002-03-28 12:57ESTYesGRW/EANUSGS-43000 GoodClearNONE
1262002-03-28 12:40ESTYesGRW/EANUSGS-83700 GoodClearNONE
1252002-03-28 12:21ESTYesGRW/EANUSGS-128000 GoodClearNONE
1242002-03-28 12:05ESTYesGRW/EANUSGS-153000 GoodClearNONE
1232002-03-28 11:46ESTYesGRW/EANUSGS-192000 GoodClearNONE
1222002-03-21 13:54ESTYesGRW/EANUSGS-33000 GoodClearNONE
1212002-03-21 13:36ESTYesGRW/EANUSGS-6930 GoodClearNONE
1202002-03-21 13:17ESTYesGRW/EANUSGS24400 GoodClearNONE
1192002-03-21 12:53ESTYesGRW/EANUSGS61100 GoodClearNONE
1182001-10-25 12:11ESTYesGRW/EANUSGS148000 GoodClearNONE
1172001-10-25 11:54ESTYesGRW/EANUSGS138000 GoodClearNONE
1162001-10-25 11:37ESTYesGRW/EANUSGS126000 GoodClearNONE
1152001-10-02 14:24ESTYesGRW/EANUSGS48900 GoodClearNONE
1142001-10-02 14:08ESTYesGRW/EANUSGS10300 GoodClearNONE
1132001-10-02 13:50ESTYesGRW/EANUSGS-24500 GoodClearNONE
1122001-10-02 13:35ESTYesGRW/EANUSGS-62400 GoodClearNONE
1112001-10-02 13:11ESTYesGRW/EANUSGS-108000 GoodClearNONE
1102001-10-02 12:52ESTYesGRW/EANUSGS-140000 GoodClearNONE
1092001-10-02 12:34ESTYesGRW/EANUSGS-168000 GoodClearNONE
1082001-10-02 12:09ESTYesGRW/EANUSGS-199000 GoodClearNONE
1072001-10-02 11:50ESTYesGRW/EANUSGS-216000 GoodClearNONE
1062001-10-02 11:31ESTYesGRW/EANUSGS-231000 GoodClearNONE
1052001-10-02 10:59ESTYesGRW/EANUSGS-241000 GoodClearNONE
1042001-10-02 10:39ESTYesGRW/EANUSGS-234000 GoodClearNONE
1032001-10-02 10:20ESTYesGRW/EANUSGS-225000 GoodClearNONE
1022001-10-02 10:01ESTYesGRW/EANUSGS-207000 GoodClearNONE
1012001-10-02 09:42ESTYesGRW/EANUSGS-188000 GoodClearNONE
1002001-10-02 09:25ESTYesGRW/EANUSGS-161000 GoodClearNONE
992001-10-02 09:09ESTYesGRW/EANUSGS-131000 GoodClearNONE
982001-10-02 08:52ESTYesGRW/EANUSGS-93500 GoodClearNONE
972001-10-02 08:34ESTYesGRW/EANUSGS-50900 GoodClearNONE
962001-08-23 12:11ESTYesGRW/EANUSGS-128000 GoodClearNONE
952001-08-23 11:52ESTYesGRW/EANUSGS-74900 GoodClearNONE
942001-08-23 11:33ESTYesGRW/EANUSGS-14500 GoodClearNONE
932001-08-23 11:14ESTYesGRW/EANUSGS38700 GoodClearNONE
922001-08-23 10:50ESTYesGRW/EANUSGS105000 GoodClearNONE
912001-06-06 11:15ESTYesGRW/TPSUSGS-213000 GoodClearNONE
902001-06-06 11:00ESTYesGRW/TPSUSGS-204000 GoodClearNONE
892001-06-06 10:43ESTYesGRW/TPSUSGS-190000 GoodClearNONE
882001-06-06 10:28ESTYesGRW/TPSUSGS-171000 GoodClearNONE
872001-06-06 10:12ESTYesGRW/TPSUSGS-148000 GoodClearNONE
862001-06-06 09:57ESTYesGRW/TPSUSGS-126000 GoodClearNONE
852001-06-06 09:39ESTYesGRW/TPSUSGS-97800 GoodClearNONE
842001-06-06 09:24ESTYesGRW/TPSUSGS-63600 GoodClearNONE
832001-06-06 09:06ESTYesGRW/TPSUSGS-32000 GoodClearNONE
822001-06-06 08:51ESTYesGRW/TPSUSGS6220 GoodClearNONE
812001-06-06 08:38ESTYesGRW/TPSUSGS45000 GoodClearNONE
802001-06-06 08:22ESTYesGRW/TPSUSGS79100 GoodClearNONE
792001-06-06 08:06ESTYesGRW/TPSUSGS121000 GoodClearNONE
782001-06-06 07:50ESTYesGRW/TPSUSGS152000 GoodClearNONE
772001-06-06 07:35ESTYesGRW/TPSUSGS182000 GoodClearNONE
762001-06-06 07:18ESTYesGRW/TPSUSGS209000 GoodClearNONE
752001-06-06 07:01ESTYesGRW/TPSUSGS232000 GoodClearNONE
742001-06-06 06:44ESTYesGRW/TPSUSGS250000 GoodClearNONE
732001-06-06 05:31ESTYesGRW/DDEUSGS299000 GoodClearNONE
722001-06-06 05:14ESTYesGRW/DDEUSGS299000 GoodClearNONE
712001-06-06 04:58ESTYesGRW/DDEUSGS293000 GoodClearNONE
702001-06-06 04:40ESTYesGRW/DDEUSGS284000 GoodClearNONE
692001-06-06 04:25ESTYesGRW/DDEUSGS274000 GoodClearNONE
682001-06-06 04:09ESTYesGRW/DDEUSGS264000 GoodClearNONE
672001-06-06 03:51ESTYesGRW/DDEUSGS246000 GoodClearNONE
662001-06-06 03:34ESTYesGRW/DDEUSGS233000 GoodClearNONE
652001-06-06 03:18ESTYesGRW/DDEUSGS205000 GoodClearNONE
642001-06-06 03:01ESTYesGRW/DDEUSGS175000 GoodClearNONE
632001-06-06 02:44ESTYesGRW/DDEUSGS142000 GoodClearNONE
622001-06-06 02:29ESTYesGRW/DDEUSGS109000 GoodClearNONE
612001-06-06 02:10ESTYesGRW/DDEUSGS56300 GoodClearNONE
602001-06-06 01:53ESTYesGRW/DDEUSGS14900 GoodClearNONE
592001-06-06 01:37ESTYesGRW/DDEUSGS-33100 GoodClearNONE
582001-06-06 01:20ESTYesGRW/DDEUSGS-73900 GoodClearNONE
572001-06-06 01:02ESTYesGRW/DDEUSGS-119000 GoodClearNONE
562001-06-06 00:46ESTYesGRW/DDEUSGS-149000 GoodClearNONE
552001-06-06 00:27ESTYesGRW/DDEUSGS-182000 GoodClearNONE
542001-06-06 00:11ESTYesGRW/DDEUSGS-205000 GoodClearNONE
532001-06-05 23:45ESTYesGRW/DDEUSGS-244000 GoodClearNONE
522001-06-05 23:28ESTYesGRW/DDEUSGS-257000 GoodClearNONE
512001-06-05 23:11ESTYesGRW/DDEUSGS-273000 GoodClearNONE
502001-06-05 22:39ESTYesGRW/DDEUSGS-280000 GoodClearNONE
492001-06-05 22:19ESTYesGRW/DDEUSGS-277000 GoodClearNONE
482001-06-05 21:41ESTYesGRW/DDEUSGS-255000 GoodClearNONE
472001-06-05 21:24ESTYesGRW/DDEUSGS-232000 GoodClearNONE
462001-06-05 21:02ESTYesGRW/DDEUSGS-193000 GoodClearNONE
452001-06-05 20:47ESTYesGRW/DDEUSGS-159000 GoodClearNONE
442001-06-05 20:31ESTYesGRW/DDEUSGS-123000 GoodClearNONE
432001-06-05 20:15ESTYesGRW/DDEUSGS-78100 GoodClearNONE
422001-06-05 20:00ESTYesGRW/DDEUSGS-33900 GoodClearNONE
412001-06-05 19:44ESTYesGRW/DDEUSGS9840 GoodClearNONE
402001-06-05 19:27ESTYesGRW/DDEUSGS63000 GoodClearNONE
392001-06-05 19:09ESTYesGRW/DDEUSGS112000 GoodClearNONE
382001-06-05 18:45ESTYesGRW/DDEUSGS168000 GoodClearNONE
372001-06-05 18:26ESTYesGRW/DDEUSGS201000 GoodClearNONE
362001-06-05 17:11ESTYesGRW/DDEUSGS258000 GoodClearNONE
352001-06-05 16:54ESTYesGRW/DDEUSGS253000 GoodClearNONE
342001-06-05 16:39ESTYesGRW/DDEUSGS249000 GoodClearNONE
332001-06-05 16:22ESTYesGRW/DDEUSGS249000 GoodClearNONE
322001-06-05 16:06ESTYesGRW/DDEUSGS245000 GoodClearNONE
312001-06-05 15:42ESTYesGRW/DDEUSGS232000 GoodClearNONE
302001-06-05 15:25ESTYesGRW/DDEUSGS229000 GoodClearNONE
292001-06-05 15:06ESTYesGRW/JMGUSGS205000 GoodClearNONE
282001-06-05 14:48ESTYesGRW/JMGUSGS183000 GoodClearNONE
272001-06-05 14:20ESTYesGRW/JMGUSGS139000 GoodClearNONE
262001-06-05 14:04ESTYesGRW/JMGUSGS107000 GoodClearNONE
252001-06-05 13:47ESTYesGRW/JMGUSGS75800 GoodClearNONE
242001-06-05 13:32ESTYesGRW/JMGUSGS42000 GoodClearNONE
232001-06-05 13:17ESTYesGRW/JMGUSGS4480 GoodClearNONE
222001-06-05 13:01ESTYesGRW/JMGUSGS-30900 GoodClearNONE
212001-06-05 12:32ESTYesGRW/JMGUSGS-96500 GoodClearNONE
202001-06-05 12:14ESTYesGRW/JMGUSGS-129000 GoodClearNONE
192001-06-05 11:55ESTYesGRW/JMGUSGS-168000 GoodClearNONE
182001-06-05 11:23ESTYesGRW/JMGUSGS-208000 GoodClearNONE
172001-06-05 11:05ESTYesGRW/JMGUSGS-224000 GoodClearNONE
162001-06-05 10:50ESTYesGRW/JMGUSGS-227000 GoodClearNONE
152001-05-17 13:07ESTYesGRW/DDEUSGS235000 GoodClearNONE
142001-05-17 12:45ESTYesGRW/DDEUSGS226000 GoodClearNONE
132001-05-11 13:03ESTYesGRW/DDEUSGS-190000 GoodClearNONE
122001-05-11 12:41ESTYesGRW/DDEUSGS-157000 GoodClearNONE
112001-05-11 12:22ESTYesGRW/DDEUSGS-122000 GoodClearNONE
102001-05-11 12:00ESTYesGRW/DDEUSGS-75900 GoodClearNONE
92001-05-11 11:40ESTYesGRW/DDEUSGS-31800 GoodClearNONE
82001-05-11 11:19ESTYesGRW/DDEUSGS15700 GoodClearNONE
72001-05-11 10:59ESTYesGRW/DDEUSGS69700 GoodClearNONE
62001-05-11 10:26ESTYesGRW/DDEUSGS138000 GoodClearNONE
52001-05-11 09:52ESTYesGRW/DDEUSGS193000 GoodClearNONE
42001-05-03 14:11ESTYesGRW/DDEUSGS278000 GoodClearNONE
32001-05-03 13:54ESTYesGRW/DDEUSGS274000 GoodClearNONE
22001-05-03 13:38ESTYesGRW/DDEUSGS271000 GoodClearNONE
12001-04-26 14:40ESTYesGRW/DDEUSGS183000 GoodClearNONE